Previsão horária em Abakumy

Hoje, 11 Abril, Domingo

Tempo Temperatura Precipitação Vento Pressão Humidade
00:00 +4°C° 0 mm 3 m/s 758 mmHg 69%
01:00 +3°C° 0 mm 3 m/s 758 mmHg 71%
02:00 +3°C° 0 mm 3 m/s 758 mmHg 72%
03:00 +3°C° 0 mm 3 m/s 758 mmHg 73%
04:00 +3°C° 0 mm 2 m/s 758 mmHg 73%
05:00 +3°C° 0 mm 2 m/s 759 mmHg 74%
06:00 +4°C° 0 mm 3 m/s 759 mmHg 68%
07:00 +5°C° 0 mm 3 m/s 759 mmHg 63%
08:00 +8°C° 0 mm 3 m/s 760 mmHg 57%
09:00 +10°C° 0 mm 3 m/s 760 mmHg 52%
10:00 +11°C° 0 mm 3 m/s 760 mmHg 46%
11:00 +13°C° 0 mm 3 m/s 760 mmHg 41%
12:00 +14°C° 0 mm 3 m/s 760 mmHg 40%
13:00 +14°C° 0 mm 3 m/s 760 mmHg 38%
14:00 +16°C° 0 mm 2 m/s 760 mmHg 37%
15:00 +16°C° 0 mm 2 m/s 760 mmHg 39%
16:00 +15°C° 0 mm 2 m/s 760 mmHg 41%
17:00 +15°C° 0 mm 2 m/s 760 mmHg 43%
18:00 +13°C° 0 mm 2 m/s 760 mmHg 48%
19:00 +12°C° 0 mm 2 m/s 760 mmHg 54%
20:00 +9°C° 0 mm 2 m/s 760 mmHg 59%
21:00 +8°C° 0 mm 2 m/s 760 mmHg 61%
22:00 +8°C° 0 mm 2 m/s 760 mmHg 62%
23:00 +7°C° 0 mm 2 m/s 760 mmHg 64%

Amanhã, 12 Abril, Segunda-feira

Tempo Temperatura Precipitação Vento Pressão Humidade
00:00 +7°C° 0 mm 2 m/s 760 mmHg 66%
01:00 +6°C° 0 mm 2 m/s 760 mmHg 68%
02:00 +6°C° 0 mm 2 m/s 760 mmHg 70%
03:00 +5°C° 0 mm 2 m/s 760 mmHg 71%
04:00 +5°C° 0 mm 2 m/s 760 mmHg 72%
05:00 +4°C° 0 mm 2 m/s 759 mmHg 73%
06:00 +5°C° 0 mm 3 m/s 759 mmHg 68%
07:00 +7°C° 0 mm 3 m/s 759 mmHg 63%
08:00 +9°C° 0 mm 3 m/s 759 mmHg 58%
09:00 +10°C° 0 mm 3 m/s 758 mmHg 51%
10:00 +12°C° 0 mm 3 m/s 758 mmHg 44%
11:00 +13°C° 0 mm 3 m/s 758 mmHg 37%
12:00 +14°C° 0 mm 3 m/s 757 mmHg 40%
13:00 +14°C° 0 mm 3 m/s 757 mmHg 43%
14:00 +14°C° 0 mm 3 m/s 756 mmHg 46%
15:00 +13°C° 0 mm 3 m/s 756 mmHg 57%
16:00 +12°C° 0 mm 3 m/s 756 mmHg 67%
17:00 +11°C° 0 mm 3 m/s 756 mmHg 77%
18:00 +10°C° 0.1 mm 3 m/s 756 mmHg 82%
19:00 +10°C° 0.1 mm 2 m/s 756 mmHg 86%
20:00 +9°C° 0.1 mm 2 m/s 756 mmHg 91%
21:00 +10°C° 0 mm 1 m/s 756 mmHg 91%
22:00 +10°C° 0 mm 1 m/s 755 mmHg 90%
23:00 +9°C° 0 mm 0 m/s 755 mmHg 90%

Depois de amanhã, 13 Abril, Terça-feira

Tempo Temperatura Precipitação Vento Pressão Humidade
00:00 +10°C° 0 mm 1 m/s 755 mmHg 91%
01:00 +10°C° 0 mm 1 m/s 755 mmHg 91%
02:00 +10°C° 0 mm 1 m/s 754 mmHg 91%
03:00 +9°C° 0 mm 2 m/s 754 mmHg 92%
04:00 +9°C° 0 mm 2 m/s 754 mmHg 92%
05:00 +9°C° 0 mm 2 m/s 754 mmHg 93%
06:00 +10°C° 0 mm 2 m/s 754 mmHg 90%
07:00 +12°C° 0 mm 2 m/s 754 mmHg 87%
08:00 +12°C° 0 mm 2 m/s 753 mmHg 84%
09:00 +14°C° 0 mm 2 m/s 753 mmHg 77%
10:00 +16°C° 0 mm 2 m/s 753 mmHg 69%
11:00 +17°C° 0 mm 2 m/s 753 mmHg 62%
12:00 +17°C° 0 mm 2 m/s 753 mmHg 61%
13:00 +18°C° 0 mm 2 m/s 752 mmHg 61%
14:00 +18°C° 0 mm 2 m/s 752 mmHg 60%
15:00 +17°C° 0.1 mm 2 m/s 752 mmHg 65%
16:00 +16°C° 0.1 mm 2 m/s 752 mmHg 69%
17:00 +16°C° 0.1 mm 2 m/s 752 mmHg 74%
18:00 +15°C° 0 mm 2 m/s 752 mmHg 78%
19:00 +14°C° 0 mm 2 m/s 752 mmHg 81%
20:00 +14°C° 0 mm 2 m/s 752 mmHg 85%
21:00 +13°C° 0.1 mm 2 m/s 752 mmHg 87%
22:00 +12°C° 0.1 mm 3 m/s 752 mmHg 89%
23:00 +12°C° 0.1 mm 3 m/s 752 mmHg 90%

14 Abril, Quarta-feira

Tempo Temperatura Precipitação Vento Pressão Humidade
00:00 +12°C° 0 mm 3 m/s 752 mmHg 91%
01:00 +11°C° 0 mm 3 m/s 752 mmHg 92%
02:00 +11°C° 0 mm 3 m/s 751 mmHg 93%
03:00 +11°C° 0 mm 3 m/s 751 mmHg 92%
04:00 +10°C° 0 mm 3 m/s 751 mmHg 92%
05:00 +10°C° 0 mm 3 m/s 751 mmHg 92%
06:00 +10°C° 0 mm 3 m/s 751 mmHg 88%
07:00 +11°C° 0 mm 3 m/s 751 mmHg 84%
08:00 +11°C° 0 mm 3 m/s 751 mmHg 81%
09:00 +12°C° 0 mm 3 m/s 751 mmHg 76%
10:00 +13°C° 0 mm 3 m/s 751 mmHg 72%
11:00 +13°C° 0 mm 3 m/s 751 mmHg 67%
12:00 +14°C° 0 mm 4 m/s 751 mmHg 64%
13:00 +14°C° 0 mm 4 m/s 751 mmHg 61%
14:00 +15°C° 0 mm 4 m/s 751 mmHg 58%
15:00 +14°C° 0 mm 3 m/s 750 mmHg 59%
16:00 +14°C° 0 mm 3 m/s 750 mmHg 60%
17:00 +14°C° 0 mm 3 m/s 750 mmHg 61%
18:00 +14°C° 0 mm 2 m/s 751 mmHg 65%
19:00 +13°C° 0 mm 2 m/s 751 mmHg 68%
20:00 +12°C° 0 mm 1 m/s 751 mmHg 72%
21:00 +12°C° 0 mm 1 m/s 751 mmHg 73%
22:00 +11°C° 0 mm 1 m/s 751 mmHg 73%
23:00 +10°C° 0 mm 0 m/s 751 mmHg 74%

15 Abril, Quinta-feira

Tempo Temperatura Precipitação Vento Pressão Humidade
00:00 +11°C° 0 mm 1 m/s 751 mmHg 75%
01:00 +11°C° 0 mm 1 m/s 751 mmHg 77%
02:00 +10°C° 0 mm 1 m/s 750 mmHg 78%
03:00 +10°C° 0 mm 1 m/s 750 mmHg 80%
04:00 +9°C° 0 mm 2 m/s 750 mmHg 81%
05:00 +9°C° 0 mm 2 m/s 750 mmHg 83%
06:00 +10°C° 0.2 mm 2 m/s 750 mmHg 85%
07:00 +10°C° 0.2 mm 2 m/s 750 mmHg 87%
08:00 +10°C° 0.2 mm 2 m/s 750 mmHg 88%
09:00 +10°C° 0.5 mm 2 m/s 750 mmHg 87%
10:00 +10°C° 0.5 mm 3 m/s 750 mmHg 85%
11:00 +11°C° 0.5 mm 3 m/s 750 mmHg 83%
12:00 +12°C° 0.1 mm 4 m/s 750 mmHg 79%
13:00 +12°C° 0.1 mm 4 m/s 749 mmHg 74%
14:00 +13°C° 0.1 mm 4 m/s 749 mmHg 70%
15:00 +13°C° 0.5 mm 4 m/s 749 mmHg 76%
16:00 +12°C° 0.5 mm 4 m/s 749 mmHg 82%
17:00 +11°C° 0.5 mm 3 m/s 748 mmHg 88%
18:00 +11°C° 0.1 mm 3 m/s 748 mmHg 88%
19:00 +10°C° 0.1 mm 3 m/s 748 mmHg 88%
20:00 +10°C° 0.1 mm 3 m/s 748 mmHg 88%
21:00 +10°C° 0.1 mm 4 m/s 748 mmHg 87%
22:00 +9°C° 0.1 mm 5 m/s 748 mmHg 86%
23:00 +9°C° 0.1 mm 6 m/s 748 mmHg 85%

16 Abril, Sexta-feira

Tempo Temperatura Precipitação Vento Pressão Humidade
00:00 +9°C° 0.1 mm 6 m/s 748 mmHg 86%
01:00 +8°C° 0.1 mm 6 m/s 748 mmHg 87%
02:00 +8°C° 0.1 mm 7 m/s 748 mmHg 88%
03:00 +6°C° 0 mm 7 m/s 748 mmHg 87%
04:00 +6°C° 0 mm 7 m/s 748 mmHg 86%
05:00 +6°C° 0 mm 7 m/s 748 mmHg 85%
06:00 +5°C° 0.1 mm 7 m/s 749 mmHg 84%
07:00 +5°C° 0.1 mm 7 m/s 749 mmHg 84%
08:00 +5°C° 0.1 mm 7 m/s 749 mmHg 84%
09:00 +5°C° 0 mm 8 m/s 750 mmHg 83%
10:00 +5°C° 0 mm 8 m/s 750 mmHg 82%
11:00 +5°C° 0 mm 8 m/s 751 mmHg 81%
12:00 +5°C° 0 mm 8 m/s 751 mmHg 80%
13:00 +5°C° 0 mm 8 m/s 752 mmHg 80%
14:00 +5°C° 0 mm 8 m/s 752 mmHg 79%
15:00 +5°C° 0 mm 7 m/s 753 mmHg 76%
16:00 +5°C° 0 mm 7 m/s 754 mmHg 73%
17:00 +5°C° 0 mm 6 m/s 754 mmHg 70%
18:00 +5°C° 0 mm 6 m/s 755 mmHg 66%
19:00 +5°C° 0 mm 6 m/s 755 mmHg 62%
20:00 +5°C° 0 mm 6 m/s 756 mmHg 58%
21:00 +4°C° 0 mm 6 m/s 756 mmHg 57%
22:00 +4°C° 0 mm 6 m/s 757 mmHg 57%
23:00 +3°C° 0 mm 6 m/s 758 mmHg 57%
Mostrar mais